Location: ??
(35.1714°N, 128.2806°E)
Time: 14:52:17
(UTC+00:00)

ALOS - Pass Details

Date: 29 October 2020
Orbit: 684 x 684 km, 97.9° (Epoch: 01 December)

Event Time Altitude Azimuth Distance (km) Brightness Sun altitude
Rises 20:33:12 0° 2° (N) 3,053 5.6 -15.4°
Reaches altitude 10° 20:35:34 10° 355° (N) 2,134 4.7 -15.0°
Maximum altitude 20:39:52 38° 288° (WNW) 1,034 2.7 -14.1°
Drops below altitude 10° 20:44:10 10° 220° (SW) 2,121 4.5 -13.2°
Sets 20:46:30 0° 212° (SSW) 3,033 5.4 -12.8°
